Time,TemperatureF,DewpointF,PressureIn,WindDirection,WindDirectionDegrees,WindSpeedMPH,WindSpeedGustMPH,Humidity,HourlyPrecipIn,Conditions,Clouds,dailyrainin,SoftwareType,DateUTC
2013-08-20 00:02:00,68.9,68.0,32.00,SSE,157,0.0,0.0,97,0.00,,,0.38,weatherlink.com 1.10,2013-08-20 02:02:00,
2013-08-20 00:19:00,68.9,68.0,32.00,SSE,156,0.0,0.0,97,0.00,,,0.38,weatherlink.com 1.10,2013-08-20 02:19:00,
2013-08-20 00:35:00,68.7,68.0,32.00,SSE,157,0.0,0.0,98,0.00,,,0.38,weatherlink.com 1.10,2013-08-20 02:35:00,
2013-08-20 00:51:00,68.9,68.0,32.00,SSE,157,0.0,0.0,98,0.00,,,0.38,weatherlink.com 1.10,2013-08-20 02:51:00,
2013-08-20 01:07:00,68.9,68.0,32.00,SSE,157,0.0,0.0,98,0.00,,,0.38,weatherlink.com 1.10,2013-08-20 03:07:00,
2013-08-20 01:23:00,68.8,68.0,32.00,SSE,157,0.0,0.0,98,0.00,,,0.38,weatherlink.com 1.10,2013-08-20 03:23:00,
2013-08-20 01:39:00,68.7,68.0,32.00,SSE,157,0.0,0.0,98,0.00,,,0.38,weatherlink.com 1.10,2013-08-20 03:39:00,
2013-08-20 01:55:00,68.6,68.0,32.00,SSE,156,0.0,0.0,98,0.00,,,0.38,weatherlink.com 1.10,2013-08-20 03:55:00,
2013-08-20 02:11:00,68.5,68.0,32.00,SSE,157,0.0,0.0,98,0.00,,,0.00,weatherlink.com 1.10,2013-08-20 04:11:00,
2013-08-20 02:27:00,68.4,68.0,32.00,SSE,156,0.0,0.0,98,0.00,,,0.00,weatherlink.com 1.10,2013-08-20 04:27:00,
2013-08-20 02:43:00,68.3,68.0,32.00,SSE,157,0.0,0.0,98,0.00,,,0.00,weatherlink.com 1.10,2013-08-20 04:43:00,
2013-08-20 02:58:00,68.3,68.0,32.00,SSE,157,0.0,0.0,99,0.00,,,0.00,weatherlink.com 1.10,2013-08-20 04:58:00,
2013-08-20 03:14:00,68.3,68.0,32.00,SSE,156,0.0,0.0,99,0.00,,,0.00,weatherlink.com 1.10,2013-08-20 05:14:00,
2013-08-20 03:30:00,68.1,68.0,32.00,SSE,156,0.0,0.0,99,0.00,,,0.00,weatherlink.com 1.10,2013-08-20 05:30:00,
2013-08-20 03:46:00,68.0,68.0,32.00,SSE,157,0.0,0.0,99,0.00,,,0.00,weatherlink.com 1.10,2013-08-20 05:46:00,
2013-08-20 04:02:00,67.7,67.0,32.00,SSE,156,0.0,0.0,99,0.00,,,0.00,weatherlink.com 1.10,2013-08-20 06:02:00,
2013-08-20 04:18:00,67.6,67.0,32.00,SSE,157,0.0,0.0,99,0.00,,,0.00,weatherlink.com 1.10,2013-08-20 06:18:00,
2013-08-20 04:34:00,67.5,67.0,32.00,SSE,157,0.0,0.0,99,0.00,,,0.00,weatherlink.com 1.10,2013-08-20 06:34:00,
2013-08-20 04:50:00,67.1,67.0,32.00,SSE,157,0.0,0.0,99,0.00,,,0.00,weatherlink.com 1.10,2013-08-20 06:50:00,
2013-08-20 05:06:00,66.6,66.0,32.00,SSE,157,0.0,0.0,99,0.00,,,0.00,weatherlink.com 1.10,2013-08-20 07:06:00,
2013-08-20 05:22:00,66.3,66.0,32.00,SSE,157,0.0,0.0,99,0.00,,,0.00,weatherlink.com 1.10,2013-08-20 07:22:00,
2013-08-20 05:38:00,66.0,66.0,32.00,SSE,156,0.0,0.0,99,0.00,,,0.00,weatherlink.com 1.10,2013-08-20 07:38:00,
2013-08-20 05:54:00,65.9,66.0,32.00,SSE,157,0.0,0.0,99,0.00,,,0.00,weatherlink.com 1.10,2013-08-20 07:54:00,
2013-08-20 06:10:00,66.0,66.0,32.00,SSE,156,0.0,0.0,99,0.00,,,0.00,weatherlink.com 1.10,2013-08-20 08:10:00,
2013-08-20 06:26:00,65.9,66.0,32.00,SSE,157,0.0,0.0,99,0.00,,,0.00,weatherlink.com 1.10,2013-08-20 08:26:00,
2013-08-20 06:42:00,65.9,66.0,32.00,SSE,157,0.0,0.0,99,0.00,,,0.00,weatherlink.com 1.10,2013-08-20 08:42:00,
2013-08-20 06:58:00,65.8,66.0,32.00,SSE,157,0.0,0.0,99,0.00,,,0.00,weatherlink.com 1.10,2013-08-20 08:58:00,
2013-08-20 07:13:00,65.7,65.0,32.00,SSE,157,0.0,0.0,99,0.00,,,0.00,weatherlink.com 1.10,2013-08-20 09:13:00,
2013-08-20 07:30:00,65.8,66.0,32.00,SSE,156,0.0,0.0,99,0.00,,,0.00,weatherlink.com 1.10,2013-08-20 09:30:00,
2013-08-20 07:45:00,65.7,65.0,32.00,SSE,157,0.0,0.0,99,0.00,,,0.00,weatherlink.com 1.10,2013-08-20 09:45:00,
2013-08-20 08:01:00,65.6,65.0,32.00,SSE,157,0.0,0.0,99,0.00,,,0.00,weatherlink.com 1.10,2013-08-20 10:01:00,
2013-08-20 08:17:00,65.5,66.0,32.00,SSE,157,0.0,0.0,100,0.00,,,0.00,weatherlink.com 1.10,2013-08-20 10:17:00,
2013-08-20 08:34:00,65.3,65.0,32.00,SSE,156,0.0,0.0,99,0.00,,,0.00,weatherlink.com 1.10,2013-08-20 10:34:00,
2013-08-20 08:49:00,65.2,65.0,32.00,SSE,157,0.0,0.0,99,0.00,,,0.00,weatherlink.com 1.10,2013-08-20 10:49:00,
2013-08-20 09:05:00,65.1,65.0,32.00,SSE,157,0.0,0.0,99,0.00,,,0.00,weatherlink.com 1.10,2013-08-20 11:05:00,
2013-08-20 09:21:00,65.2,65.0,32.00,SSE,156,0.0,0.0,99,0.00,,,0.00,weatherlink.com 1.10,2013-08-20 11:21:00,
2013-08-20 09:37:00,65.4,65.0,32.00,SSE,157,0.0,0.0,99,0.00,,,0.00,weatherlink.com 1.10,2013-08-20 11:37:00,
2013-08-20 09:53:00,66.1,66.0,32.00,SSE,156,0.0,0.0,100,0.00,,,0.00,weatherlink.com 1.10,2013-08-20 11:53:00,
2013-08-20 10:09:00,66.8,67.0,32.00,SSE,157,0.0,0.0,100,0.00,,,0.00,weatherlink.com 1.10,2013-08-20 12:09:00,
2013-08-20 10:25:00,66.8,67.0,32.00,SSE,157,0.0,1.0,100,0.00,,,0.00,weatherlink.com 1.10,2013-08-20 12:25:00,
2013-08-20 10:41:00,67.5,68.0,32.00,SSE,156,0.0,1.0,100,0.00,,,0.00,weatherlink.com 1.10,2013-08-20 12:41:00,
2013-08-20 10:57:00,67.8,68.0,32.00,SSE,157,0.0,1.0,100,0.00,,,0.00,weatherlink.com 1.10,2013-08-20 12:57:00,
2013-08-20 11:12:00,68.2,68.0,32.00,SSE,157,0.0,1.0,100,0.00,,,0.00,weatherlink.com 1.10,2013-08-20 13:12:00,
2013-08-20 11:29:00,68.8,69.0,32.00,SSE,157,0.0,0.0,100,0.00,,,0.00,weatherlink.com 1.10,2013-08-20 13:29:00,
2013-08-20 11:45:00,69.4,69.0,32.00,SSE,157,3.0,3.0,100,0.00,,,0.00,weatherlink.com 1.10,2013-08-20 13:45:00,
2013-08-20 12:00:00,70.2,70.0,32.00,SSE,157,0.0,3.0,100,0.00,,,0.00,weatherlink.com 1.10,2013-08-20 14:00:00,
2013-08-20 12:17:00,71.1,71.0,32.00,South,185,0.0,4.0,100,0.00,,,0.00,weatherlink.com 1.10,2013-08-20 14:17:00,
2013-08-20 12:33:00,71.5,71.0,32.00,SW,227,0.0,5.0,99,0.00,,,0.00,weatherlink.com 1.10,2013-08-20 14:33:00,
2013-08-20 12:49:00,72.1,71.0,32.00,WSW,254,3.0,5.0,95,0.00,,,0.00,weatherlink.com 1.10,2013-08-20 14:49:00,
2013-08-20 13:04:00,72.7,71.0,32.00,West,259,4.0,4.0,94,0.00,,,0.00,weatherlink.com 1.10,2013-08-20 15:04:00,
2013-08-20 13:21:00,73.0,71.0,32.00,WSW,246,2.0,4.0,94,0.00,,,0.00,weatherlink.com 1.10,2013-08-20 15:21:00,
2013-08-20 13:37:00,73.2,70.0,32.00,West,275,2.0,4.0,91,0.00,,,0.00,weatherlink.com 1.10,2013-08-20 15:37:00,
2013-08-20 13:52:00,73.7,71.0,32.00,SSW,194,0.0,5.0,91,0.00,,,0.00,weatherlink.com 1.10,2013-08-20 15:52:00,
2013-08-20 14:08:00,74.1,70.0,32.00,West,263,3.0,5.0,88,0.00,,,0.00,weatherlink.com 1.10,2013-08-20 16:08:00,
2013-08-20 14:25:00,74.8,70.0,32.00,West,267,2.0,5.0,86,0.00,,,0.00,weatherlink.com 1.10,2013-08-20 16:25:00,
2013-08-20 14:40:00,75.8,71.0,32.00,West,265,1.0,3.0,86,0.00,,,0.00,weatherlink.com 1.10,2013-08-20 16:40:00,
2013-08-20 14:56:00,75.5,70.0,32.00,West,266,2.0,3.0,84,0.00,,,0.00,weatherlink.com 1.10,2013-08-20 16:56:00,
2013-08-20 15:12:00,75.6,70.0,32.00,West,266,2.0,3.0,84,0.00,,,0.00,weatherlink.com 1.10,2013-08-20 17:12:00,
2013-08-20 15:28:00,75.8,71.0,32.00,West,266,0.0,1.0,84,0.00,,,0.00,weatherlink.com 1.10,2013-08-20 17:28:00,
2013-08-20 15:44:00,76.1,71.0,32.00,West,266,1.0,1.0,83,0.00,,,0.00,weatherlink.com 1.10,2013-08-20 17:44:00,
2013-08-20 16:00:00,76.2,71.0,32.00,West,261,2.0,4.0,85,0.00,,,0.00,weatherlink.com 1.10,2013-08-20 18:00:00,
2013-08-20 16:16:00,76.7,71.0,32.00,SSW,213,3.0,4.0,84,0.00,,,0.00,weatherlink.com 1.10,2013-08-20 18:16:00,
2013-08-20 16:32:00,76.3,72.0,32.00,SSW,194,0.0,5.0,86,0.00,,,0.00,weatherlink.com 1.10,2013-08-20 18:32:00,
2013-08-20 16:48:00,76.5,72.0,32.00,South,182,0.0,4.0,85,0.00,,,0.00,weatherlink.com 1.10,2013-08-20 18:48:00,
2013-08-20 17:04:00,76.7,71.0,32.00,South,180,0.0,5.0,84,0.00,,,0.00,weatherlink.com 1.10,2013-08-20 19:04:00,
2013-08-20 17:20:00,76.8,72.0,32.00,South,173,2.0,6.0,84,0.00,,,0.00,weatherlink.com 1.10,2013-08-20 19:20:00,
2013-08-20 17:36:00,77.5,73.0,32.00,South,172,0.0,4.0,85,0.00,,,0.00,weatherlink.com 1.10,2013-08-20 19:36:00,
2013-08-20 17:52:00,78.4,72.0,32.00,SE,124,0.0,5.0,80,0.00,,,0.00,weatherlink.com 1.10,2013-08-20 19:52:00,
2013-08-20 18:08:00,78.9,72.0,32.00,SE,140,2.0,4.0,79,0.00,,,0.00,weatherlink.com 1.10,2013-08-20 20:08:00,
2013-08-20 18:24:00,78.6,72.0,32.00,SSE,147,0.0,1.0,79,0.00,,,0.00,weatherlink.com 1.10,2013-08-20 20:24:00,
2013-08-20 18:40:00,78.1,72.0,32.00,SSE,148,0.0,4.0,81,0.00,,,0.00,weatherlink.com 1.10,2013-08-20 20:40:00,
2013-08-20 18:56:00,78.7,72.0,32.00,SSE,148,1.0,1.0,80,0.00,,,0.00,weatherlink.com 1.10,2013-08-20 20:56:00,
2013-08-20 19:12:00,78.6,72.0,32.00,SSE,148,0.0,1.0,80,0.00,,,0.00,weatherlink.com 1.10,2013-08-20 21:12:00,
2013-08-20 19:28:00,78.4,72.0,32.00,SSE,148,1.0,3.0,80,0.00,,,0.00,weatherlink.com 1.10,2013-08-20 21:28:00,
2013-08-20 19:44:00,78.4,71.0,32.00,SE,140,0.0,4.0,78,0.00,,,0.00,weatherlink.com 1.10,2013-08-20 21:44:00,
2013-08-20 20:00:00,78.3,72.0,32.00,SE,146,1.0,4.0,80,0.00,,,0.00,weatherlink.com 1.10,2013-08-20 22:00:00,
2013-08-20 20:16:00,78.7,72.0,32.00,SE,145,0.0,4.0,79,0.00,,,0.00,weatherlink.com 1.10,2013-08-20 22:16:00,
2013-08-20 20:32:00,78.5,71.0,32.00,SE,142,0.0,5.0,79,0.00,,,0.00,weatherlink.com 1.10,2013-08-20 22:32:00,
2013-08-20 20:48:00,77.6,71.0,32.00,SE,141,0.0,4.0,80,0.00,,,0.00,weatherlink.com 1.10,2013-08-20 22:48:00,
2013-08-20 21:04:00,77.2,72.0,32.00,SE,141,0.0,0.0,83,0.00,,,0.00,weatherlink.com 1.10,2013-08-20 23:04:00,
2013-08-20 21:20:00,77.3,72.0,32.00,SE,141,0.0,1.0,84,0.00,,,0.00,weatherlink.com 1.10,2013-08-20 23:20:00,
2013-08-20 21:36:00,76.6,72.0,32.00,SE,141,0.0,0.0,85,0.00,,,0.00,weatherlink.com 1.10,2013-08-20 23:36:00,
2013-08-20 21:52:00,75.6,72.0,32.00,SE,141,0.0,0.0,88,0.00,,,0.00,weatherlink.com 1.10,2013-08-20 23:52:00,
2013-08-20 22:08:00,74.6,71.0,32.00,SE,141,0.0,0.0,89,0.00,,,0.00,weatherlink.com 1.10,2013-08-21 00:08:00,
2013-08-20 22:24:00,73.6,71.0,32.00,SE,141,0.0,0.0,91,0.00,,,0.00,weatherlink.com 1.10,2013-08-21 00:24:00,
2013-08-20 22:40:00,73.0,71.0,32.00,SE,141,0.0,0.0,93,0.00,,,0.00,weatherlink.com 1.10,2013-08-21 00:40:00,
2013-08-20 22:56:00,72.5,71.0,32.00,SE,141,0.0,0.0,94,0.00,,,0.00,weatherlink.com 1.10,2013-08-21 00:56:00,
2013-08-20 23:12:00,71.8,70.0,32.00,SE,141,0.0,0.0,95,0.00,,,0.00,weatherlink.com 1.10,2013-08-21 01:12:00,
2013-08-20 23:28:00,71.3,70.0,32.00,SE,141,0.0,0.0,95,0.00,,,0.00,weatherlink.com 1.10,2013-08-21 01:28:00,
2013-08-20 23:44:00,70.7,70.0,32.00,SE,141,0.0,0.0,96,0.00,,,0.00,weatherlink.com 1.10,2013-08-21 01:44:00,